Regional Weather Roundup
Issued by NWS

Home | Current Version | Previous Version | Text Only | Print | Product List | Glossary On
Versions: 1 2 3 4 5 6 7 8 9 10 11 12 13 14 15 16 17 18 19 20 21 22 23 24 25 26 27 28 29 30 31 32 33 34 35 36 37 38 39 40 41 42 43 44 45 46 47 48 49 50
000
ASCA44 KEWX 260320
RWRMX

LATIN AMERICA AND CARIBBEAN REGIONAL WEATHER ROUNDUP
NATIONAL WEATHER SERVICE AUSTIN/SAN ANTONIO TX
1000 PM CDT SAT APR 25 2015

NOTE: "FAIR" INDICATED FEW OR NO CLOUDS BELOW 12,000 FEET WITH NO
SIGNIFICANT WEATHER AND/OR OBSTRUCTIONS TO VISIBILITY.

BAJA CALIFORNIA

CITY           SKY/WX    TMP DP  RH WIND       PRES   REMARKS
LORETO           N/A    N/A N/A N/A MISG        N/A
LA PAZ           N/A    N/A N/A N/A MISG        N/A
MEXICALI       PTCLDY    68  45  42 W14       29.79S
S.J. DEL CABO  PTCLDY    73  52  46 SE8       29.90R
TIJUANA        CLOUDY    59  54  82 W12       29.95F

NORTHWESTERN MEXICO

CITY           SKY/WX    TMP DP  RH WIND       PRES   REMARKS
CULIACAN       MOCLDY    73  59  60 CALM      29.87R
DURANGO        CLEAR     66  43  42 S8        30.14R
GUAYMAS          N/A    N/A N/A N/A MISG        N/A
HERMOSILLO     CLEAR     77  39  25 S9        29.85S
CD. JUAREZ     PTCLDY    73  27  17 W20       29.77R
LOS MOCHIS     PTCLDY    72  54  53 W5        29.86R
OBREGON        CLEAR     73  37  27 NW5       29.82R

NORTHEASTERN MEXICO

CITY           SKY/WX    TMP DP  RH WIND       PRES   REMARKS
CHIHUAHUA      PTCLDY    73  27  17 SW14      29.88R
MONTERREY      PTCLDY    77  72  83 SE7       29.76R
REYNOSA        PTCLDY    77  72  83 NE6       29.73
TORREON        PTCLDY    88  36  15 SW12      29.86R
CD. VICTORIA   PTCLDY    82  72  69 N5        29.76R

WESTERN MEXICO

CITY           SKY/WX    TMP DP  RH WIND       PRES   REMARKS
AGUASCALIENTES PTCLDY    68  34  28 W6        30.16R
DEL BAJIO      MOCLDY    73  43  33 W7        30.20R
GUADALAJARA    MOCLDY    75  48  38 W12       30.11R
MAZATLAN       PTCLDY    72  61  68 W9        29.86R
P. VALLARTA    PTCLDY    77  73  88 SW7       29.88R
ZACATECAS      CLEAR     66  37  34 W12       30.19R

CENTRAL MEXICO

CITY           SKY/WX    TMP DP  RH WIND       PRES   REMARKS
MEXICO CITY    CLEAR     72  41  33 S7        30.23R
MORELIA        PTCLDY    66  46  48 SW6       30.16R
QUERETARO      PTCLDY    72  46  40 NW5       30.20
S. LUIS POTOSI MOCLDY    75  37  25 CALM      30.12R
TAMPICO        PTCLDY    82  77  83 SE12      29.69R HAZE    HX  91
TOLUCA         PTCLDY    64  41  42 W8        30.33R

SOUTHERN MEXICO

CITY           SKY/WX    TMP DP  RH WIND       PRES   REMARKS
ACAPULCO       CLEAR     81  79  94 W9        29.80R
OAXACA         PTCLDY    77  50  38 SE6       30.12R
VERACRUZ       CLEAR     82  75  78 W3        29.73R

YUCATAN PENINSULA

CITY           SKY/WX    TMP DP  RH WIND       PRES   REMARKS
CANCUN         CLEAR     81  75  83 SE7       29.91R
CHETUMAL       CLEAR     82  73  74 E9        29.85R
COZUMEL        MOCLDY    75  73  94 SE5       29.92R
MERIDA         CLEAR     86  73  66 N5        29.80R HX  93
TAPACHULA      MOCLDY    82  79  89 CALM      29.84R HX  93
TUX. GUTIERREZ PTCLDY    86  63  45 CALM      29.82R
VILLAHERMOSA   PTCLDY    81  77  89 CALM      29.75R

CENTRAL AMERICA

CITY           SKY/WX    TMP DP  RH WIND       PRES   REMARKS
BELIZE CITY    PTCLDY    81  75  83 E6        29.85R
MANAGUA        PTCLDY    86  70  58 SE9       29.80S HX  90

CARIBBEAN

CITY           SKY/WX    TMP DP  RH WIND       PRES   REMARKS
CURACAO          N/A     81  77  89 E13       29.89R
KINGSTON       PTCLDY    82  75  78 VRB2      29.92R
NASSAU         PTCLDY    81  75  83 CALM      29.93R
SAN JUAN       PTCLDY    82  72  69 S5        29.99S
SANTO DOMINGO  PTCLDY    75  70  83 SE5       29.97R
ST. CROIX      PTCLDY    81  73  78 SE6       30.00S
ST. THOMAS     CLEAR     81  73  78 SE8       29.98S

$$



USA.gov is the U.S. government's official web portal to all federal, state and local government web resources and services.